Location: Ravensburg
(47.7866°N, 9.6124°E)
Time: 02:05:57
(UTC+02:00)

CAS-6 - Pass Details

Date: 19 March 2026
Orbit: 601 x 618 km, 97.8° (Epoch: 14 April)

Event Time Altitude Azimuth Distance (km) Brightness Sun altitude
Exits shadow 21:41:32 19° 7° (N) 1,463 ? -30.2°
Drops below altitude 10° 21:42:51 10° 359° (N) 1,960 ? -30.4°
Sets 21:45:07 0° 353° (N) 2,870 ? -30.7°
